Tampa Macdill AFB, FL

1:31 AM EST on December 16, 2017 (GMT -0500)
MacDill Air Force Base

Weather History for KMCF - December, 2013

Change the Weather History Date:

Monday, December 9, 2013

  Actual Average Record
Temperature  
Mean Temperature 76 °F -  
Max Temperature 84 °F 72 °F 84 °F (1998)
Min Temperature 67 °F 55 °F 41 °F (2010)
Cooling Degree Days 10    
Growing Degree Days 26 (Base 50)    
Moisture  
Dew Point 70 °F    
Average Humidity 93    
Maximum Humidity 100    
Minimum Humidity 68    
Precipitation  
Precipitation 0.00 in - - ()
Sea Level Pressure  
Sea Level Pressure 30.16 in    
Wind  
Wind Speed 7 mph (SSE)    
Max Wind Speed 14 mph    
Max Gust Speed -    
Visibility 10 miles    
Events      
Averages and records for this station are not official NWS values.
T = Trace of Precipitation, MM = Missing Value Source: NWS Daily Summary

Daily Weather History Graph

Daily Weather History Graph

Search for Another Location

Airport or City:

Trip Planner

Search our weather history database for the weather conditions in past years. The results will help you decide how hot, cold, wet, or windy it might be!

Date:

Astronomy

Dec. 09, 2013 Rise Set
Actual Time 7:09 AM EST 5:35 PM EST
Civil Twilight 6:44 AM EST 6:00 PM EST
Nautical Twilight 6:15 AM EST 6:30 PM EST
Astronomical Twilight 5:46 AM EST 6:58 PM EST
Moon 12:31 PM EST (12/9) No Moon Set
Length of Visible Light 11h 16m
Length of Day
10h 25m
Waxing Crescent, 51% of the Moon is Illuminated
Dec 9
Waxing Crescent
Dec 17
Full
Dec 25
Last Quarter
Jan 1
New
Jan 7
First Quarter

Hourly Weather History & Observations

Time (EST) Temp. Heat Index Dew Point Humidity Pressure Visibility Wind Dir Wind Speed Gust Speed Precip Events Conditions
12:58 AM 69.3 °F - 68.7 °F 98% 30.18 in 10.0 mi ESE 5.8 mph - N/A   Clear
1:58 AM 68.7 °F - 68.4 °F 99% 30.17 in 10.0 mi SE 6.9 mph - N/A   Clear
2:58 AM 67.8 °F - 67.5 °F 99% 30.17 in 10.0 mi SE 6.9 mph - N/A   Clear
3:58 AM 68.4 °F - 68.4 °F 100% 30.16 in 10.0 mi SE 6.9 mph - N/A   Clear
4:58 AM 68.0 °F - 68.0 °F 100% 30.16 in 10.0 mi SE 5.8 mph - N/A   Partly Cloudy
5:58 AM 67.3 °F - 67.3 °F 100% 30.16 in 10.0 mi ESE 4.6 mph - N/A   Clear
6:58 AM 67.3 °F - 67.3 °F 100% 30.18 in 10.0 mi East 4.6 mph - N/A   Clear
7:58 AM 68.4 °F - 68.4 °F 100% 30.19 in 10.0 mi East 3.5 mph - N/A   Clear
8:58 AM 72.3 °F - 72.0 °F 99% 30.20 in 10.0 mi SE 6.9 mph - N/A   Partly Cloudy
9:58 AM 75.0 °F - 72.5 °F 92% 30.20 in 10.0 mi SE 9.2 mph - N/A   Partly Cloudy
10:58 AM 78.4 °F - 73.4 °F 84% 30.19 in 10.0 mi SSE 9.2 mph - N/A   Clear
11:58 AM 81.7 °F 87.6 °F 74.1 °F 78% 30.18 in 10.0 mi South 8.1 mph - N/A   Partly Cloudy
12:58 PM 84.9 °F 91.8 °F 73.4 °F 68% 30.15 in 10.0 mi SW 10.4 mph - N/A   Clear
1:58 PM 82.8 °F 89.0 °F 73.6 °F 74% 30.13 in 10.0 mi SW 13.8 mph - N/A   Clear
2:58 PM 79.3 °F - 72.1 °F 79% 30.12 in 10.0 mi SW 10.4 mph - N/A   Clear
3:58 PM 78.1 °F - 72.5 °F 83% 30.11 in 10.0 mi SW 11.5 mph - N/A   Clear
4:58 PM 75.9 °F - 72.1 °F 88% 30.11 in 10.0 mi SW 9.2 mph - N/A   Clear
5:58 PM 72.5 °F - 70.3 °F 93% 30.12 in 10.0 mi SW 6.9 mph - N/A   Clear
6:58 PM 71.4 °F - 70.7 °F 98% 30.13 in 10.0 mi SW 4.6 mph - N/A   Clear
7:58 PM 69.6 °F - 68.4 °F 96% 30.15 in 10.0 mi SW 1.2 mph - N/A   Clear
8:58 PM 69.6 °F - 69.3 °F 99% 30.16 in 10.0 mi ESE 2.3 mph - N/A   Clear
9:58 PM 68.5 °F - 68.5 °F 100% 30.16 in 10.0 mi SSW 2.3 mph - N/A   Scattered Clouds
10:58 PM 69.1 °F - 69.1 °F 100% 30.15 in 10.0 mi SE 2.3 mph - N/A   Scattered Clouds
11:58 PM 67.8 °F - 67.6 °F 99% 30.15 in 10.0 mi SE 5.8 mph - N/A   Mostly Cloudy